Year,Month,Day,Hour,Minute,Value (Times are PST for temperature in C)
2015,05,27,00,00,10.70
2015,05,27,00,01,10.70
2015,05,27,00,02,10.70
2015,05,27,00,03,10.70
2015,05,27,00,04,10.70
2015,05,27,00,05,10.70
2015,05,27,00,06,10.70
2015,05,27,00,07,10.70
2015,05,27,00,08,10.70
2015,05,27,00,09,10.70
2015,05,27,00,10,10.70
2015,05,27,00,11,10.70
2015,05,27,00,12,10.70
2015,05,27,00,17,10.70
2015,05,27,00,18,10.60
2015,05,27,00,19,10.60
2015,05,27,00,20,10.60
2015,05,27,00,21,10.60
2015,05,27,00,22,10.60
2015,05,27,00,23,10.60
2015,05,27,00,24,10.60
2015,05,27,00,25,10.60
2015,05,27,00,26,10.60
2015,05,27,00,27,10.60
2015,05,27,00,28,10.60
2015,05,27,00,29,10.60
2015,05,27,00,30,10.60
2015,05,27,00,31,10.60
2015,05,27,00,32,10.60
2015,05,27,00,33,10.60
2015,05,27,00,34,10.70
2015,05,27,00,35,10.70
2015,05,27,00,36,10.70
2015,05,27,00,37,10.70
2015,05,27,00,38,10.70
2015,05,27,00,39,10.70
2015,05,27,00,40,10.70
2015,05,27,00,41,10.70
2015,05,27,00,42,10.70
2015,05,27,00,43,10.70
2015,05,27,00,44,10.70
2015,05,27,00,45,10.70
2015,05,27,00,46,10.70
2015,05,27,00,47,10.70
2015,05,27,00,48,10.70
2015,05,27,00,49,10.70
2015,05,27,00,50,10.70
2015,05,27,00,51,10.70
2015,05,27,00,52,10.70
2015,05,27,00,53,10.70
2015,05,27,00,54,10.70
2015,05,27,00,55,10.70
2015,05,27,00,56,10.70
2015,05,27,00,57,10.70
2015,05,27,00,58,10.70
2015,05,27,00,59,10.70
2015,05,27,01,00,10.70
2015,05,27,01,01,10.70
2015,05,27,01,02,10.70
2015,05,27,01,03,10.70
2015,05,27,01,04,10.70
2015,05,27,01,05,10.70
2015,05,27,01,06,10.70
2015,05,27,01,07,10.70
2015,05,27,01,08,10.70
2015,05,27,01,09,10.70
2015,05,27,01,10,10.70
2015,05,27,01,11,10.70
2015,05,27,01,12,10.70
2015,05,27,01,13,10.70
2015,05,27,01,14,10.70
2015,05,27,01,15,10.70
2015,05,27,01,16,10.70
2015,05,27,01,17,10.70
2015,05,27,01,18,10.70
2015,05,27,01,19,10.70
2015,05,27,01,20,10.70
2015,05,27,01,21,10.70
2015,05,27,01,22,10.70
2015,05,27,01,23,10.70
2015,05,27,01,24,10.70
2015,05,27,01,25,10.70
2015,05,27,01,26,10.70
2015,05,27,01,27,10.60
2015,05,27,01,28,10.60
2015,05,27,01,29,10.60
2015,05,27,01,30,10.60
2015,05,27,01,31,10.60
2015,05,27,01,32,10.50
2015,05,27,01,33,10.50
2015,05,27,01,34,10.50
2015,05,27,01,35,10.50
2015,05,27,01,36,10.50
2015,05,27,01,37,10.50
2015,05,27,01,38,10.50
2015,05,27,01,39,10.50
2015,05,27,01,40,10.50
2015,05,27,01,41,10.50
2015,05,27,01,42,10.50
2015,05,27,01,43,10.50
2015,05,27,01,44,10.40
2015,05,27,01,45,10.40
2015,05,27,01,46,10.40
2015,05,27,01,47,10.40
2015,05,27,01,48,10.40
2015,05,27,01,49,10.40
2015,05,27,01,50,10.40
2015,05,27,01,51,10.40
2015,05,27,01,52,10.40
2015,05,27,01,53,10.40
2015,05,27,01,54,10.40
2015,05,27,01,55,10.40
2015,05,27,01,56,10.40
2015,05,27,01,57,10.40
2015,05,27,01,58,10.40
2015,05,27,01,59,10.40
2015,05,27,02,00,10.40
2015,05,27,02,01,10.40
2015,05,27,02,02,10.40
2015,05,27,02,03,10.40
2015,05,27,02,04,10.40
2015,05,27,02,05,10.40
2015,05,27,02,06,10.40
2015,05,27,02,07,10.40
2015,05,27,02,08,10.40
2015,05,27,02,09,10.40
2015,05,27,02,10,10.40
2015,05,27,02,11,10.40
2015,05,27,02,12,10.40
2015,05,27,02,13,10.40
2015,05,27,02,14,10.40
2015,05,27,02,15,10.40
2015,05,27,02,16,10.40
2015,05,27,02,17,10.40
2015,05,27,02,18,10.40
2015,05,27,02,19,10.40
2015,05,27,02,20,10.40
2015,05,27,02,21,10.40
2015,05,27,02,22,10.40
2015,05,27,02,23,10.40
2015,05,27,02,24,10.40
2015,05,27,02,25,10.40
2015,05,27,02,26,10.40
2015,05,27,02,27,10.40
2015,05,27,02,28,10.40
2015,05,27,02,29,10.40
2015,05,27,02,30,10.40
2015,05,27,02,31,10.40
2015,05,27,02,32,10.40
2015,05,27,02,33,10.40
2015,05,27,02,34,10.40
2015,05,27,02,35,10.40
2015,05,27,02,36,10.40
2015,05,27,02,37,10.40
2015,05,27,02,38,10.40
2015,05,27,02,39,10.40
2015,05,27,02,40,10.40
2015,05,27,02,41,10.40
2015,05,27,02,42,10.40
2015,05,27,02,43,10.40
2015,05,27,02,44,10.40
2015,05,27,02,45,10.40
2015,05,27,02,46,10.40
2015,05,27,02,47,10.40
2015,05,27,02,48,10.40
2015,05,27,02,49,10.40
2015,05,27,02,50,10.40
2015,05,27,02,51,10.40
2015,05,27,02,52,10.40
2015,05,27,02,53,10.40
2015,05,27,02,54,10.40
2015,05,27,02,55,10.40
2015,05,27,02,56,10.40
2015,05,27,02,57,10.40
2015,05,27,02,58,10.40
2015,05,27,02,59,10.40
2015,05,27,03,00,10.40
2015,05,27,03,01,10.40
2015,05,27,03,02,10.40
2015,05,27,03,03,10.40
2015,05,27,03,04,10.40
2015,05,27,03,05,10.40
2015,05,27,03,06,10.40
2015,05,27,03,07,10.40
2015,05,27,03,08,10.40
2015,05,27,03,09,10.40
2015,05,27,03,10,10.40
2015,05,27,03,11,10.40
2015,05,27,03,12,10.40
2015,05,27,03,13,10.40
2015,05,27,03,14,10.40
2015,05,27,03,15,10.40
2015,05,27,03,16,10.40
2015,05,27,03,17,10.40
2015,05,27,03,18,10.40
2015,05,27,03,19,10.40
2015,05,27,03,20,10.40
2015,05,27,03,21,10.40
2015,05,27,03,22,10.40
2015,05,27,03,23,10.40
2015,05,27,03,24,10.40
2015,05,27,03,25,10.40
2015,05,27,03,26,10.30
2015,05,27,03,27,10.30
2015,05,27,03,28,10.30
2015,05,27,03,29,10.30
2015,05,27,03,30,10.30
2015,05,27,03,31,10.30
2015,05,27,03,32,10.30
2015,05,27,03,33,10.30
2015,05,27,03,34,10.30
2015,05,27,03,35,10.30
2015,05,27,03,36,10.30
2015,05,27,03,37,10.30
2015,05,27,03,38,10.30
2015,05,27,03,39,10.30
2015,05,27,03,40,10.30
2015,05,27,03,41,10.30
2015,05,27,03,42,10.30
2015,05,27,03,43,10.30
2015,05,27,03,44,10.30
2015,05,27,03,45,10.30
2015,05,27,03,46,10.30
2015,05,27,03,47,10.20
2015,05,27,03,48,10.20
2015,05,27,03,49,10.20
2015,05,27,03,50,10.20
2015,05,27,03,51,10.20
2015,05,27,03,52,10.20
2015,05,27,03,53,10.20
2015,05,27,03,54,10.20
2015,05,27,03,55,10.20
2015,05,27,03,56,10.20
2015,05,27,03,57,10.20
2015,05,27,03,58,10.20
2015,05,27,03,59,10.20
2015,05,27,04,00,10.20
2015,05,27,04,01,10.20
2015,05,27,04,02,10.20
2015,05,27,04,03,10.20
2015,05,27,04,04,10.20
2015,05,27,04,05,10.20
2015,05,27,04,06,10.20
2015,05,27,04,07,10.20
2015,05,27,04,08,10.20
2015,05,27,04,09,10.20
2015,05,27,04,10,10.20
2015,05,27,04,11,10.20
2015,05,27,04,12,10.20
2015,05,27,04,13,10.20
2015,05,27,04,14,10.20
2015,05,27,04,15,10.20
2015,05,27,04,16,10.20
2015,05,27,04,17,10.20
2015,05,27,04,18,10.20
2015,05,27,04,19,10.20
2015,05,27,04,20,10.20
2015,05,27,04,21,10.20
2015,05,27,04,22,10.20
2015,05,27,04,23,10.20
2015,05,27,04,24,10.20
2015,05,27,04,25,10.20
2015,05,27,04,26,10.20
2015,05,27,04,27,10.20
2015,05,27,04,28,10.20
2015,05,27,04,29,10.20
2015,05,27,04,30,10.20
2015,05,27,04,31,10.10
2015,05,27,04,32,10.10
2015,05,27,04,33,10.10
2015,05,27,04,34,10.10
2015,05,27,04,35,10.10
2015,05,27,04,36,10.10
2015,05,27,04,37,10.10
2015,05,27,04,38,10.10
2015,05,27,04,39,10.10
2015,05,27,04,40,10.10
2015,05,27,04,41,10.10
2015,05,27,04,42,10.10
2015,05,27,04,43,10.10
2015,05,27,04,44,10.10
2015,05,27,04,45,10.10
2015,05,27,04,46,10.10
2015,05,27,04,47,10.10
2015,05,27,04,48,10.10
2015,05,27,04,49,10.10
2015,05,27,04,50,10.10
2015,05,27,04,51,10.10
2015,05,27,04,52,10.10
2015,05,27,04,53,10.10
2015,05,27,04,54,10.10
2015,05,27,04,55,10.10
2015,05,27,04,56,10.10
2015,05,27,04,57,10.10
2015,05,27,04,58,10.10
2015,05,27,04,59,10.10
2015,05,27,05,00,10.10
2015,05,27,05,01,10.10
2015,05,27,05,02,10.10
2015,05,27,05,03,10.10
2015,05,27,05,04,10.10
2015,05,27,05,05,10.10
2015,05,27,05,06,10.10
2015,05,27,05,07,10.00
2015,05,27,05,08,10.00
2015,05,27,05,09,10.00
2015,05,27,05,10,10.00
2015,05,27,05,11,10.10
2015,05,27,05,12,10.00
2015,05,27,05,13,10.00
2015,05,27,05,14,10.10
2015,05,27,05,15,10.00
2015,05,27,05,16,10.00
2015,05,27,05,17,10.00
2015,05,27,05,18,10.00
2015,05,27,05,19,10.00
2015,05,27,05,20,10.00
2015,05,27,05,21,10.00
2015,05,27,05,22,10.00
2015,05,27,05,23,10.00
2015,05,27,05,24,10.00
2015,05,27,05,25,10.00
2015,05,27,05,26,10.00
2015,05,27,05,27,10.00
2015,05,27,05,28,10.00
2015,05,27,05,29,10.00
2015,05,27,05,30,10.00
2015,05,27,05,31,10.00
2015,05,27,05,32,10.00
2015,05,27,05,33,10.00
2015,05,27,05,34,10.00
2015,05,27,05,35,10.00
2015,05,27,05,36,10.00
2015,05,27,05,37,10.00
2015,05,27,05,38,10.00
2015,05,27,05,39,10.00
2015,05,27,05,40,10.00
2015,05,27,05,41,10.00
2015,05,27,05,42,10.00
2015,05,27,05,43,10.00
2015,05,27,05,44,10.00
2015,05,27,05,45,10.00
2015,05,27,05,46,10.00
2015,05,27,05,47,10.10
2015,05,27,05,48,10.10
2015,05,27,05,49,10.10
2015,05,27,05,50,10.10
2015,05,27,05,51,10.10
2015,05,27,05,52,10.10
2015,05,27,05,53,10.10
2015,05,27,05,54,10.10
2015,05,27,05,55,10.00
2015,05,27,05,56,10.10
2015,05,27,05,57,10.10
2015,05,27,05,58,10.10
2015,05,27,05,59,10.10
2015,05,27,06,00,10.10
2015,05,27,06,01,10.10
2015,05,27,06,02,10.10
2015,05,27,06,03,10.10
2015,05,27,06,04,10.10
2015,05,27,06,05,10.10
2015,05,27,06,06,10.10
2015,05,27,06,07,10.10
2015,05,27,06,08,10.10
2015,05,27,06,09,10.10
2015,05,27,06,10,10.20
2015,05,27,06,11,10.20
2015,05,27,06,12,10.20
2015,05,27,06,13,10.20
2015,05,27,06,14,10.20
2015,05,27,06,15,10.20
2015,05,27,06,16,10.20
2015,05,27,06,17,10.20
2015,05,27,06,18,10.20
2015,05,27,06,19,10.20
2015,05,27,06,20,10.20
2015,05,27,06,21,10.20
2015,05,27,06,22,10.20
2015,05,27,06,23,10.20
2015,05,27,06,24,10.20
2015,05,27,06,25,10.20
2015,05,27,06,26,10.20
2015,05,27,06,27,10.20
2015,05,27,06,28,10.20
2015,05,27,06,29,10.20
2015,05,27,06,30,10.20
2015,05,27,06,31,10.20
2015,05,27,06,32,10.20
2015,05,27,06,33,10.20
2015,05,27,06,34,10.20
2015,05,27,06,35,10.20
2015,05,27,06,36,10.20
2015,05,27,06,37,10.20
2015,05,27,06,38,10.20
2015,05,27,06,39,10.20
2015,05,27,06,40,10.20
2015,05,27,06,41,10.20
2015,05,27,06,42,10.30
2015,05,27,06,43,10.30
2015,05,27,06,44,10.30
2015,05,27,06,45,10.30
2015,05,27,06,46,10.30
2015,05,27,06,47,10.30
2015,05,27,06,48,10.30
2015,05,27,06,49,10.30
2015,05,27,06,50,10.30
2015,05,27,06,51,10.30
2015,05,27,06,52,10.30
2015,05,27,06,53,10.30
2015,05,27,06,54,10.30
2015,05,27,06,55,10.30
2015,05,27,06,56,10.30
2015,05,27,06,57,10.30
2015,05,27,06,58,10.30
2015,05,27,06,59,10.30
2015,05,27,07,00,10.30
2015,05,27,07,01,10.30
2015,05,27,07,02,10.30
2015,05,27,07,03,10.30
2015,05,27,07,04,10.30
2015,05,27,07,05,10.30
2015,05,27,07,06,10.30
2015,05,27,07,07,10.30
2015,05,27,07,08,10.30
2015,05,27,07,09,10.30
2015,05,27,07,10,10.30
2015,05,27,07,11,10.40
2015,05,27,07,12,10.40
2015,05,27,07,13,10.40
2015,05,27,07,14,10.40
2015,05,27,07,15,10.40
2015,05,27,07,16,10.40
2015,05,27,07,17,10.40
2015,05,27,07,18,10.40
2015,05,27,07,19,10.40
2015,05,27,07,20,10.40
2015,05,27,07,21,10.40
2015,05,27,07,22,10.40
2015,05,27,07,23,10.50
2015,05,27,07,24,10.50
2015,05,27,07,25,10.50
2015,05,27,07,26,10.50
2015,05,27,07,27,10.50
2015,05,27,07,28,10.50
2015,05,27,07,29,10.50
2015,05,27,07,30,10.50
2015,05,27,07,31,10.50
2015,05,27,07,32,10.50
2015,05,27,07,33,10.50
2015,05,27,07,34,10.50
2015,05,27,07,35,10.50
2015,05,27,07,36,10.50
2015,05,27,07,37,10.50
2015,05,27,07,38,10.50
2015,05,27,07,39,10.50
2015,05,27,07,40,10.50
2015,05,27,07,41,10.50
2015,05,27,07,42,10.50
2015,05,27,07,43,10.60
2015,05,27,07,44,10.50
2015,05,27,07,45,10.60
2015,05,27,07,46,10.50
2015,05,27,07,47,10.50
2015,05,27,07,48,10.50
2015,05,27,07,49,10.50
2015,05,27,07,50,10.50
2015,05,27,07,51,10.50
2015,05,27,07,52,10.50
2015,05,27,07,53,10.50
2015,05,27,07,54,10.60
2015,05,27,07,55,10.60
2015,05,27,07,56,10.60
2015,05,27,07,57,10.60
2015,05,27,07,58,10.60
2015,05,27,07,59,10.60
2015,05,27,08,00,10.60
2015,05,27,08,01,10.70
2015,05,27,08,02,10.70
2015,05,27,08,03,10.70
2015,05,27,08,04,10.70
2015,05,27,08,05,10.70
2015,05,27,08,06,10.70
2015,05,27,08,07,10.80
2015,05,27,08,08,10.80
2015,05,27,08,09,10.80
2015,05,27,08,10,10.80
2015,05,27,08,11,10.80
2015,05,27,08,12,10.80
2015,05,27,08,13,10.80
2015,05,27,08,14,10.80
2015,05,27,08,15,10.90
2015,05,27,08,16,10.90
2015,05,27,08,17,10.90
2015,05,27,08,18,10.90
2015,05,27,08,19,10.90
2015,05,27,08,20,10.90
2015,05,27,08,21,10.90
2015,05,27,08,22,10.90
2015,05,27,08,23,11.00
2015,05,27,08,24,11.00
2015,05,27,08,25,11.00
2015,05,27,08,26,11.00
2015,05,27,08,27,11.00
2015,05,27,08,28,11.10
2015,05,27,08,29,11.10
2015,05,27,08,30,11.10
2015,05,27,08,31,11.10
2015,05,27,08,32,11.20
2015,05,27,08,33,11.20
2015,05,27,08,34,11.30
2015,05,27,08,35,11.30
2015,05,27,08,36,11.40
2015,05,27,08,37,11.40
2015,05,27,08,38,11.40
2015,05,27,08,39,11.50
2015,05,27,08,40,11.50
2015,05,27,08,41,11.60
2015,05,27,08,42,11.60
2015,05,27,08,43,11.70
2015,05,27,08,44,11.70
2015,05,27,08,45,11.80
2015,05,27,08,46,11.80
2015,05,27,08,47,11.80
2015,05,27,08,48,11.90
2015,05,27,08,49,11.90
2015,05,27,08,50,12.00
2015,05,27,08,51,12.00
2015,05,27,08,52,11.90
2015,05,27,08,53,11.90
2015,05,27,08,54,11.90
2015,05,27,08,55,11.80
2015,05,27,08,56,11.80
2015,05,27,08,57,11.80
2015,05,27,08,58,11.80
2015,05,27,08,59,11.80
2015,05,27,09,00,11.80
2015,05,27,09,01,11.80
2015,05,27,09,02,11.80
2015,05,27,09,03,11.80
2015,05,27,09,04,11.80
2015,05,27,09,05,11.80
2015,05,27,09,06,11.80
2015,05,27,09,07,11.80
2015,05,27,09,08,11.90
2015,05,27,09,09,11.90
2015,05,27,09,10,11.90
2015,05,27,09,11,11.90
2015,05,27,09,12,11.90
2015,05,27,09,13,12.00
2015,05,27,09,14,12.10
2015,05,27,09,15,12.10
2015,05,27,09,16,12.10
2015,05,27,09,17,12.20
2015,05,27,09,18,12.20
2015,05,27,09,19,12.20
2015,05,27,09,20,12.20
2015,05,27,09,21,12.20
2015,05,27,09,22,12.10
2015,05,27,09,23,12.20
2015,05,27,09,24,12.20
2015,05,27,09,25,12.20
2015,05,27,09,26,12.20
2015,05,27,09,27,12.20
2015,05,27,09,28,12.20
2015,05,27,09,29,12.10
2015,05,27,09,30,12.10
2015,05,27,09,31,12.10
2015,05,27,09,32,12.00
2015,05,27,09,33,12.00
2015,05,27,09,34,12.00
2015,05,27,09,35,12.00
2015,05,27,09,36,12.00
2015,05,27,09,37,12.10
2015,05,27,09,38,12.20
2015,05,27,09,39,12.20
2015,05,27,09,40,12.30
2015,05,27,09,41,12.30
2015,05,27,09,42,12.30
2015,05,27,09,43,12.40
2015,05,27,09,44,12.40
2015,05,27,09,45,12.50
2015,05,27,09,46,12.50
2015,05,27,09,47,12.60
2015,05,27,09,48,12.70
2015,05,27,09,49,12.70
2015,05,27,09,50,12.80
2015,05,27,09,51,12.80
2015,05,27,09,52,12.90
2015,05,27,09,53,12.90
2015,05,27,09,54,12.90
2015,05,27,09,55,13.00
2015,05,27,09,56,13.00
2015,05,27,09,57,13.10
2015,05,27,09,58,13.10
2015,05,27,09,59,13.20
2015,05,27,10,00,13.20
2015,05,27,10,01,13.30
2015,05,27,10,02,13.30
2015,05,27,10,03,13.30
2015,05,27,10,04,13.40
2015,05,27,10,05,13.40
2015,05,27,10,06,13.50
2015,05,27,10,07,13.50
2015,05,27,10,08,13.60
2015,05,27,10,09,13.60
2015,05,27,10,10,13.70
2015,05,27,10,11,13.70
2015,05,27,10,12,13.80
2015,05,27,10,13,13.80
2015,05,27,10,14,13.90
2015,05,27,10,15,13.90
2015,05,27,10,16,14.00
2015,05,27,10,17,14.10
2015,05,27,10,18,14.20
2015,05,27,10,19,14.20
2015,05,27,10,20,14.20
2015,05,27,10,21,14.10
2015,05,27,10,22,14.00
2015,05,27,10,23,13.90
2015,05,27,10,24,13.80
2015,05,27,10,25,13.70
2015,05,27,10,26,13.70
2015,05,27,10,27,13.80
2015,05,27,10,28,13.80
2015,05,27,10,29,13.80
2015,05,27,10,30,13.80
2015,05,27,10,31,13.90
2015,05,27,10,32,13.90
2015,05,27,10,33,14.00
2015,05,27,10,34,14.10
2015,05,27,10,35,14.10
2015,05,27,10,36,14.20
2015,05,27,10,37,14.30
2015,05,27,10,38,14.30
2015,05,27,10,39,14.40
2015,05,27,10,40,14.30
2015,05,27,10,41,14.20
2015,05,27,10,42,14.10
2015,05,27,10,43,14.20
2015,05,27,10,44,14.10
2015,05,27,10,45,14.00
2015,05,27,10,46,13.90
2015,05,27,10,47,13.90
2015,05,27,10,48,14.00
2015,05,27,10,49,14.00
2015,05,27,10,50,14.00
2015,05,27,10,51,14.00
2015,05,27,10,52,14.00
2015,05,27,10,53,13.90
2015,05,27,10,54,13.80
2015,05,27,10,55,13.80
2015,05,27,10,56,13.80
2015,05,27,10,57,13.80
2015,05,27,10,58,13.80
2015,05,27,10,59,13.90
2015,05,27,11,00,13.80
2015,05,27,11,01,13.80
2015,05,27,11,02,13.90
2015,05,27,11,03,13.90
2015,05,27,11,04,14.00
2015,05,27,11,05,14.10
2015,05,27,11,06,14.20
2015,05,27,11,07,14.20
2015,05,27,11,08,14.30
2015,05,27,11,09,14.40
2015,05,27,11,10,14.50
2015,05,27,11,11,14.60
2015,05,27,11,12,14.70
2015,05,27,11,13,14.70
2015,05,27,11,14,14.80
2015,05,27,11,15,14.80
2015,05,27,11,16,14.90
2015,05,27,11,17,14.90
2015,05,27,11,18,14.90
2015,05,27,11,19,14.90
2015,05,27,11,20,14.90
2015,05,27,11,21,14.90
2015,05,27,11,22,15.00
2015,05,27,11,23,15.10
2015,05,27,11,24,15.00
2015,05,27,11,25,15.00
2015,05,27,11,26,15.00
2015,05,27,11,27,15.00
2015,05,27,11,28,15.00
2015,05,27,11,29,15.10
2015,05,27,11,30,15.10
2015,05,27,11,31,15.10
2015,05,27,11,32,15.10
2015,05,27,11,33,15.10
2015,05,27,11,34,15.20
2015,05,27,11,35,15.20
2015,05,27,11,36,15.30
2015,05,27,11,37,15.40
2015,05,27,11,38,15.50
2015,05,27,11,39,15.60
2015,05,27,11,40,15.60
2015,05,27,11,41,15.50
2015,05,27,11,42,15.50
2015,05,27,11,43,15.40
2015,05,27,11,44,15.50
2015,05,27,11,45,15.60
2015,05,27,11,46,15.60
2015,05,27,11,47,15.70
2015,05,27,11,48,15.70
2015,05,27,11,49,15.70
2015,05,27,11,50,15.70
2015,05,27,11,51,15.80
2015,05,27,11,52,15.90
2015,05,27,11,53,16.00
2015,05,27,11,54,16.10
2015,05,27,11,55,16.10
2015,05,27,11,56,16.10
2015,05,27,11,57,16.20
2015,05,27,11,58,16.20
2015,05,27,11,59,16.20
2015,05,27,12,00,16.20
2015,05,27,12,01,16.30
2015,05,27,12,02,16.30
2015,05,27,12,03,16.30
2015,05,27,12,04,16.30
2015,05,27,12,05,16.20
2015,05,27,12,06,16.10
2015,05,27,12,07,16.10
2015,05,27,12,08,16.10
2015,05,27,12,09,16.10
2015,05,27,12,10,16.20
2015,05,27,12,11,16.30
2015,05,27,12,12,16.40
2015,05,27,12,13,16.40
2015,05,27,12,14,16.50
2015,05,27,12,15,16.50
2015,05,27,12,16,16.40
2015,05,27,12,17,16.40
2015,05,27,12,18,16.40
2015,05,27,12,19,16.30
2015,05,27,12,20,16.30
2015,05,27,12,21,16.20
2015,05,27,12,22,16.10
2015,05,27,12,23,15.90
2015,05,27,12,24,15.80
2015,05,27,12,25,15.70
2015,05,27,12,26,15.70
2015,05,27,12,27,15.70
2015,05,27,12,28,15.70
2015,05,27,12,29,15.80
2015,05,27,12,30,15.80
2015,05,27,12,31,15.90
2015,05,27,12,32,15.90
2015,05,27,12,33,15.90
2015,05,27,12,34,15.90
2015,05,27,12,35,15.80
2015,05,27,12,36,15.70
2015,05,27,12,37,15.70
2015,05,27,12,38,15.70
2015,05,27,12,39,15.80
2015,05,27,12,40,15.80
2015,05,27,12,41,15.80
2015,05,27,12,42,15.80
2015,05,27,12,43,15.80
2015,05,27,12,44,15.90
2015,05,27,12,45,15.90
2015,05,27,12,46,16.00
2015,05,27,12,47,16.00
2015,05,27,12,48,16.20
2015,05,27,12,49,16.20
2015,05,27,12,50,16.30
2015,05,27,12,51,16.40
2015,05,27,12,52,16.50
2015,05,27,12,53,16.60
2015,05,27,12,54,16.70
2015,05,27,12,55,16.70
2015,05,27,12,56,16.80
2015,05,27,12,57,16.80
2015,05,27,12,58,16.80
2015,05,27,12,59,16.90
2015,05,27,13,00,17.00
2015,05,27,13,01,17.10
2015,05,27,13,02,17.20
2015,05,27,13,03,17.30
2015,05,27,13,04,17.30
2015,05,27,13,05,17.30
2015,05,27,13,06,17.20
2015,05,27,13,07,17.20
2015,05,27,13,08,17.30
2015,05,27,13,09,17.30
2015,05,27,13,10,17.30
2015,05,27,13,11,17.30
2015,05,27,13,12,17.30
2015,05,27,13,13,17.40
2015,05,27,13,14,17.40
2015,05,27,13,15,17.40
2015,05,27,13,16,17.30
2015,05,27,13,17,17.20
2015,05,27,13,18,17.20
2015,05,27,13,19,17.20
2015,05,27,13,20,17.30
2015,05,27,13,21,17.30
2015,05,27,13,22,17.20
2015,05,27,13,23,17.10
2015,05,27,13,24,17.00
2015,05,27,13,25,17.00
2015,05,27,13,26,16.80
2015,05,27,13,27,16.80
2015,05,27,13,28,16.90
2015,05,27,13,29,16.90
2015,05,27,13,30,16.90
2015,05,27,13,31,16.90
2015,05,27,13,32,17.00
2015,05,27,13,33,17.00
2015,05,27,13,34,16.80
2015,05,27,13,35,16.70
2015,05,27,13,36,16.60
2015,05,27,13,37,16.40
2015,05,27,13,38,16.30
2015,05,27,13,39,16.30
2015,05,27,13,40,16.20
2015,05,27,13,41,16.20
2015,05,27,13,42,16.30
2015,05,27,13,43,16.40
2015,05,27,13,44,16.50
2015,05,27,13,45,16.60
2015,05,27,13,46,16.70
2015,05,27,13,47,16.80
2015,05,27,13,48,16.80
2015,05,27,13,49,16.80
2015,05,27,13,50,16.80
2015,05,27,13,51,16.90
2015,05,27,13,52,16.90
2015,05,27,13,53,17.00
2015,05,27,13,54,17.20
2015,05,27,13,55,17.30
2015,05,27,13,56,17.40
2015,05,27,13,57,17.50
2015,05,27,13,58,17.60
2015,05,27,13,59,17.70
2015,05,27,14,00,17.80
2015,05,27,14,01,17.90
2015,05,27,14,02,17.90
2015,05,27,14,03,17.90
2015,05,27,14,04,17.90
2015,05,27,14,05,17.90
2015,05,27,14,06,17.90
2015,05,27,14,07,17.90
2015,05,27,14,08,18.00
2015,05,27,14,09,18.00
2015,05,27,14,10,18.00
2015,05,27,14,11,17.90
2015,05,27,14,12,17.90
2015,05,27,14,13,17.80
2015,05,27,14,14,17.80
2015,05,27,14,15,17.70
2015,05,27,14,16,17.70
2015,05,27,14,17,17.70
2015,05,27,14,18,17.70
2015,05,27,14,19,17.80
2015,05,27,14,20,17.90
2015,05,27,14,21,18.00
2015,05,27,14,22,18.10
2015,05,27,14,23,18.20
2015,05,27,14,24,18.30
2015,05,27,14,25,18.40
2015,05,27,14,26,18.50
2015,05,27,14,27,18.60
2015,05,27,14,28,18.60
2015,05,27,14,29,18.70
2015,05,27,14,30,18.70
2015,05,27,14,31,18.70
2015,05,27,14,32,18.70
2015,05,27,14,33,18.50
2015,05,27,14,34,18.40
2015,05,27,14,35,18.30
2015,05,27,14,36,18.30
2015,05,27,14,37,18.20
2015,05,27,14,38,18.20
2015,05,27,14,39,18.20
2015,05,27,14,40,18.20
2015,05,27,14,41,18.20
2015,05,27,14,42,18.20
2015,05,27,14,43,18.20
2015,05,27,14,44,18.10
2015,05,27,14,45,18.10
2015,05,27,14,46,18.20
2015,05,27,14,47,18.20
2015,05,27,14,48,18.30
2015,05,27,14,49,18.40
2015,05,27,14,50,18.40
2015,05,27,14,51,18.40
2015,05,27,14,52,18.40
2015,05,27,14,53,18.50
2015,05,27,14,54,18.50
2015,05,27,14,55,18.60
2015,05,27,14,56,18.60
2015,05,27,14,57,18.60
2015,05,27,14,58,18.70
2015,05,27,14,59,18.60
2015,05,27,15,00,18.60
2015,05,27,15,01,18.50
2015,05,27,15,02,18.40
2015,05,27,15,03,18.40
2015,05,27,15,04,18.30
2015,05,27,15,05,18.20
2015,05,27,15,06,18.10
2015,05,27,15,07,18.00
2015,05,27,15,08,17.70
2015,05,27,15,09,17.50
2015,05,27,15,10,17.30
2015,05,27,15,11,17.10
2015,05,27,15,12,17.00
2015,05,27,15,13,17.00
2015,05,27,15,14,16.80
2015,05,27,15,15,16.60
2015,05,27,15,16,16.40
2015,05,27,15,17,16.40
2015,05,27,15,18,16.40
2015,05,27,15,19,16.30
2015,05,27,15,20,16.10
2015,05,27,15,21,16.10
2015,05,27,15,22,16.00
2015,05,27,15,23,15.80
2015,05,27,15,24,15.70
2015,05,27,15,25,15.60
2015,05,27,15,26,15.40
2015,05,27,15,27,15.30
2015,05,27,15,28,15.30
2015,05,27,15,29,15.40
2015,05,27,15,30,15.40
2015,05,27,15,31,15.40
2015,05,27,15,32,15.30
2015,05,27,15,33,15.30
2015,05,27,15,34,15.30
2015,05,27,15,35,15.40
2015,05,27,15,36,15.50
2015,05,27,15,37,15.50
2015,05,27,15,38,15.60
2015,05,27,15,39,15.70
2015,05,27,15,40,15.80
2015,05,27,15,41,15.80
2015,05,27,15,42,15.80
2015,05,27,15,43,15.80
2015,05,27,15,44,15.90
2015,05,27,15,45,16.00
2015,05,27,15,46,16.10
2015,05,27,15,47,16.20
2015,05,27,15,48,16.20
2015,05,27,15,49,16.30
2015,05,27,15,50,16.30
2015,05,27,15,51,16.30
2015,05,27,15,52,16.30
2015,05,27,15,53,16.30
2015,05,27,15,54,16.30
2015,05,27,15,55,16.30
2015,05,27,15,56,16.40
2015,05,27,15,57,16.40
2015,05,27,15,58,16.40
2015,05,27,15,59,16.50
2015,05,27,16,00,16.60
2015,05,27,16,01,16.70
2015,05,27,16,02,16.80
2015,05,27,16,03,16.80
2015,05,27,16,04,16.80
2015,05,27,16,05,16.90
2015,05,27,16,06,17.00
2015,05,27,16,07,17.00
2015,05,27,16,08,17.00
2015,05,27,16,09,16.90
2015,05,27,16,10,16.90
2015,05,27,16,11,16.90
2015,05,27,16,12,16.90
2015,05,27,16,13,16.80
2015,05,27,16,14,16.60
2015,05,27,16,15,16.50
2015,05,27,16,16,16.50
2015,05,27,16,17,16.40
2015,05,27,16,18,16.30
2015,05,27,16,19,16.20
2015,05,27,16,20,16.20
2015,05,27,16,21,16.20
2015,05,27,16,22,16.20
2015,05,27,16,23,16.10
2015,05,27,16,24,16.10
2015,05,27,16,25,16.10
2015,05,27,16,26,16.10
2015,05,27,16,27,16.10
2015,05,27,16,28,16.00
2015,05,27,16,29,15.90
2015,05,27,16,30,15.90
2015,05,27,16,31,15.90
2015,05,27,16,32,15.80
2015,05,27,16,33,15.80
2015,05,27,16,34,15.80
2015,05,27,16,35,15.80
2015,05,27,16,36,15.70
2015,05,27,16,37,15.60
2015,05,27,16,38,15.60
2015,05,27,16,39,15.60
2015,05,27,16,40,15.50
2015,05,27,16,41,15.40
2015,05,27,16,42,15.30
2015,05,27,16,43,15.20
2015,05,27,16,44,15.20
2015,05,27,16,45,15.20
2015,05,27,16,46,15.20
2015,05,27,16,47,15.10
2015,05,27,16,48,15.10
2015,05,27,16,49,15.10
2015,05,27,16,50,15.10
2015,05,27,16,51,15.10
2015,05,27,16,52,15.00
2015,05,27,16,53,15.00
2015,05,27,16,54,15.00
2015,05,27,16,55,15.00
2015,05,27,16,56,15.00
2015,05,27,16,57,15.10
2015,05,27,16,58,15.10
2015,05,27,16,59,15.20
2015,05,27,17,00,15.20
2015,05,27,17,01,15.30
2015,05,27,17,02,15.40
2015,05,27,17,03,15.40
2015,05,27,17,04,15.40
2015,05,27,17,05,15.40
2015,05,27,17,06,15.40
2015,05,27,17,07,15.30
2015,05,27,17,08,15.30
2015,05,27,17,09,15.30
2015,05,27,17,10,15.30
2015,05,27,17,11,15.30
2015,05,27,17,12,15.30
2015,05,27,17,13,15.30
2015,05,27,17,14,15.20
2015,05,27,17,15,15.10
2015,05,27,17,16,15.10
2015,05,27,17,17,15.00
2015,05,27,17,18,15.00
2015,05,27,17,19,15.10
2015,05,27,17,20,15.10
2015,05,27,17,21,15.10
2015,05,27,17,22,15.00
2015,05,27,17,23,14.90